STARLINK-1842 (47132 NORAD) Tracking and Keplerian Element Data

This shows tracking and keplerian element data for the satellite.

Feedback or suggestion? Click here.




ElementValue
Catalog47132
NameSTARLINK-1842
Epoch Orbit182
Epoch Day20.91667824
Epoch Year2021
RAAN74.1277
Inclination53.0546
Eccentricity0.000163
Argument of Perigee21.5989
Mean Anonmoly70.7961
Mean Motion15.62814489
Decay Rate-0.00169918
L11 47132U 20088L 21020.91667824 -.00169918 00000-0 -18843-2 0 9995
L22 47132 53.0546 74.1277 0001630 21.5989 70.7961 15.62814489 1823

Live tracking and technical data element details for STARLINK-1842 (NORAD 47132). STARLINK-1842 can be tracked NOW for your location showing map with azimuth and elevation plus other details from your city location.

Track the satellite on the map from your city or location and see movement details for azimuth, elevation, latitude, longitude, range, height, and movement on the map or in text.







IsCatalogInMostPopularTable: catalog: 47132, numindb: 15
Update: records affected: 1



GetName: 47132 STARLINK-1842

Hit Count: updated at: Fri, 22 Jan 2021 15:29:49 GMT